User: anonymous   Login
Location: Caltech
(34.1382°N, 118.1253°W)
Time: 03:26:56
(UTC-07:00)
Language:

Lacrosse 5 rocket - Orbit

View from above orbital plane
View from above orbital plane
View from above satellite
View from above satellite

Ground track
Ground track

The orbit data is extracted from the following two-line orbital elements,

1 28647U 05016B   18109.14221675 0.00000700  00000-0  39648-4 0    00
2 28647  56.9971 212.8845 0132144 156.5263 203.4736 15.05367284    05
Epoch (UTC): 19 April 2018 03:24:47
Eccentricity: 0.0132144
inclination: 56.9971°
perigee height: 459 km
apogee height: 642 km
right ascension of ascending node: 212.8845°
argument of perigee: 156.5263°
revolutions per day: 15.05367284
mean anomaly at epoch: 203.4736°
orbit number at epoch: 0

The dashed part of the orbit path shows where the satellite is in the earth's shadow,  

DLR